﻿_id,日時,平均風速(m/s),平均風向,最大瞬間風速(m/s),最大風速時風向,気温(℃),湿度(%),10分間移動積算雨量(mm),1時間移動積算雨量(mm),日雨量(mm),累計雨量(mm),日射(日積算)(MJ/m2),日照(日積算)(min),現地気圧(hPa),海面気圧(hPa)
1,2023-05-22T00:00:00,0.9,東北東,1.9,東北東,19.5,77.8,0,0,0,0,25.78,552,996.2,1009.8
2,2023-05-22T00:01:00,0.8,東北東,2.3,東,19.5,78.1,0,0,0,0,0,0,996.2,1009.8
3,2023-05-22T00:02:00,0.9,東北東,2.8,東北東,19.6,78,0,0,0,0,0,0,996.2,1009.7
4,2023-05-22T00:03:00,0.9,東北東,2.8,東北東,19.7,78.3,0,0,0,0,0,0,996.2,1009.7
5,2023-05-22T00:04:00,0.9,東北東,2.8,東北東,19.6,77.4,0,0,0,0,0,0,996.2,1009.7
6,2023-05-22T00:05:00,0.9,東,2.8,東北東,19.5,77.3,0,0,0,0,0,0,996.2,1009.8
7,2023-05-22T00:06:00,1.1,東,2.8,東北東,19.6,77.5,0,0,0,0,0,0,996.2,1009.7
8,2023-05-22T00:07:00,1.1,東,2.8,東北東,19.5,77.4,0,0,0,0,0,0,996.2,1009.8
9,2023-05-22T00:08:00,1.1,東,2.8,東北東,19.5,77.4,0,0,0,0,0,0,996.2,1009.8
10,2023-05-22T00:09:00,1,東,2.8,東北東,19.5,77.6,0,0,0,0,0,0,996.2,1009.8
11,2023-05-22T00:10:00,1.1,東,2.8,東北東,19.7,78.2,0,0,0,0,0,0,996.1,1009.6
12,2023-05-22T00:11:00,1.2,東,2.8,東北東,19.7,78.1,0,0,0,0,0,0,996.1,1009.6
13,2023-05-22T00:12:00,1.1,東,2.8,東北東,19.8,77.7,0,0,0,0,0,0,996.1,1009.6
14,2023-05-22T00:13:00,1.1,東,2.8,東北東,19.6,77.5,0,0,0,0,0,0,996.1,1009.6
15,2023-05-22T00:14:00,1.2,東,2.9,北東,19.6,77.3,0,0,0,0,0,0,996.1,1009.6
16,2023-05-22T00:15:00,1.3,東北東,3.5,東北東,19.7,77.7,0,0,0,0,0,0,996.1,1009.6
17,2023-05-22T00:16:00,1.3,東北東,3.5,東北東,19.6,77.6,0,0,0,0,0,0,996.1,1009.6
18,2023-05-22T00:17:00,1.4,東北東,3.5,東北東,19.5,77.8,0,0,0,0,0,0,996.1,1009.7
19,2023-05-22T00:18:00,1.5,東北東,3.5,東北東,19.5,77.9,0,0,0,0,0,0,996,1009.6
20,2023-05-22T00:19:00,1.6,東北東,3.5,東北東,19.6,78.3,0,0,0,0,0,0,996.1,1009.6
21,2023-05-22T00:20:00,1.6,東北東,3.5,東北東,19.5,78.3,0,0,0,0,0,0,996,1009.6
22,2023-05-22T00:21:00,1.6,東北東,3.5,東北東,19.5,78.1,0,0,0,0,0,0,996,1009.6
23,2023-05-22T00:22:00,1.7,東北東,3.5,東北東,19.6,78.4,0,0,0,0,0,0,996,1009.5
24,2023-05-22T00:23:00,1.9,東北東,3.5,東北東,19.6,78.3,0,0,0,0,0,0,995.9,1009.4
25,2023-05-22T00:24:00,1.9,東北東,3.5,東北東,19.8,78.6,0,0,0,0,0,0,995.9,1009.4
26,2023-05-22T00:25:00,1.8,東北東,3.2,北東,19.6,77.7,0,0,0,0,0,0,995.9,1009.4
27,2023-05-22T00:26:00,1.8,東北東,3.2,北東,19.5,77.2,0,0,0,0,0,0,995.9,1009.5
28,2023-05-22T00:27:00,1.8,東北東,3.5,北東,19.7,78,0,0,0,0,0,0,995.9,1009.4
29,2023-05-22T00:28:00,1.9,東北東,3.5,北東,19.6,77.9,0,0,0,0,0,0,995.9,1009.4
30,2023-05-22T00:29:00,1.9,東北東,3.5,北東,19.6,77.9,0,0,0,0,0,0,995.9,1009.4
31,2023-05-22T00:30:00,1.9,東北東,3.5,北東,19.5,77.6,0,0,0,0,0,0,995.9,1009.5
32,2023-05-22T00:31:00,1.8,東北東,3.5,北東,19.4,78,0,0,0,0,0,0,995.9,1009.5
33,2023-05-22T00:32:00,1.7,東北東,3.5,北東,19.6,78.5,0,0,0,0,0,0,995.9,1009.4
34,2023-05-22T00:33:00,1.6,東北東,3.5,北東,19.5,78.5,0,0,0,0,0,0,995.9,1009.5
35,2023-05-22T00:34:00,1.5,東北東,3.5,北東,19.5,78.2,0,0,0,0,0,0,995.9,1009.5
36,2023-05-22T00:35:00,1.5,東北東,3.5,北東,19.4,78.5,0,0,0,0,0,0,995.9,1009.5
37,2023-05-22T00:36:00,1.4,東北東,3.5,北東,19.4,78.5,0,0,0,0,0,0,995.9,1009.5
38,2023-05-22T00:37:00,1.2,東北東,2.8,東北東,19.3,78.8,0,0,0,0,0,0,995.9,1009.5
39,2023-05-22T00:38:00,1,東北東,2.6,東北東,19.2,79,0,0,0,0,0,0,995.8,1009.4
40,2023-05-22T00:39:00,0.9,東,2.6,東北東,19.1,79.2,0,0,0,0,0,0,995.8,1009.4
41,2023-05-22T00:40:00,0.8,東,2.6,東北東,19.1,79.5,0,0,0,0,0,0,995.8,1009.4
42,2023-05-22T00:41:00,0.7,東,2.6,東北東,19,79.5,0,0,0,0,0,0,995.8,1009.4
43,2023-05-22T00:42:00,0.6,東,2,東北東,19.1,80.1,0,0,0,0,0,0,995.8,1009.4
44,2023-05-22T00:43:00,0.6,東,2,東北東,19.3,80.8,0,0,0,0,0,0,995.8,1009.4
45,2023-05-22T00:44:00,0.5,東,1.5,東北東,19.3,80.7,0,0,0,0,0,0,995.8,1009.4
46,2023-05-22T00:45:00,0.4,東,1.2,北東,19.3,80.4,0,0,0,0,0,0,995.8,1009.4
47,2023-05-22T00:46:00,0.4,東北東,1.2,北東,19.1,80,0,0,0,0,0,0,995.8,1009.4
48,2023-05-22T00:47:00,0.4,東北東,1.2,北東,19,80.2,0,0,0,0,0,0,995.7,1009.3
49,2023-05-22T00:48:00,0.4,東北東,1.2,北東,19.1,80.9,0,0,0,0,0,0,995.7,1009.3
50,2023-05-22T00:49:00,0.5,北東,1.2,北東,19,80.9,0,0,0,0,0,0,995.7,1009.3
51,2023-05-22T00:50:00,0.5,北北東,1.2,北東,18.9,81.1,0,0,0,0,0,0,995.7,1009.3
52,2023-05-22T00:51:00,0.4,北,1.2,北東,18.8,81.2,0,0,0,0,0,0,995.7,1009.3
53,2023-05-22T00:52:00,0.4,北北西,1.2,北東,18.8,81.6,0,0,0,0,0,0,995.7,1009.3
54,2023-05-22T00:53:00,0.3,北北西,1,北東,18.9,82.1,0,0,0,0,0,0,995.6,1009.2
55,2023-05-22T00:54:00,0.3,北北西,1,東北東,19,82.3,0,0,0,0,0,0,995.6,1009.2
56,2023-05-22T00:55:00,0.3,北北西,1.2,東北東,19.1,82.2,0,0,0,0,0,0,995.6,1009.2
57,2023-05-22T00:56:00,0.4,北北西,1.2,東北東,19.1,81.8,0,0,0,0,0,0,995.6,1009.2
58,2023-05-22T00:57:00,0.4,北東,1.4,東北東,19.1,81.2,0,0,0,0,0,0,995.5,1009.1
59,2023-05-22T00:58:00,0.5,北東,1.4,東北東,19.1,81.3,0,0,0,0,0,0,995.5,1009.1
60,2023-05-22T00:59:00,0.6,北東,1.8,西南西,18.8,81.7,0,0,0,0,0,0,995.5,1009.1
61,2023-05-22T01:00:00,0.7,北東,2.2,西,18.5,82.2,0,0,0,0,0,0,995.5,1009.1
62,2023-05-22T01:01:00,0.9,北北東,2.3,西,18.4,83.4,0,0,0,0,0,0,995.5,1009.1
63,2023-05-22T01:02:00,1.1,北北西,2.6,西,18.4,85.2,0,0,0,0,0,0,995.5,1009.1
64,2023-05-22T01:03:00,1.3,北西,2.8,西,18.3,86.5,0,0,0,0,0,0,995.5,1009.1
65,2023-05-22T01:04:00,1.5,西北西,2.9,西,18.2,87.2,0,0,0,0,0,0,995.4,1009
66,2023-05-22T01:05:00,1.7,西北西,3,西,18.2,88.1,0,0,0,0,0,0,995.4,1009
67,2023-05-22T01:06:00,1.8,西,3,西,18.1,88.9,0,0,0,0,0,0,995.4,1009
68,2023-05-22T01:07:00,2,西,3.1,西,18.1,89.6,0,0,0,0,0,0,995.4,1009
69,2023-05-22T01:08:00,2.2,西,3.3,西,18.1,90.1,0,0,0,0,0,0,995.4,1009
70,2023-05-22T01:09:00,2.3,西,3.4,西,18,90.2,0,0,0,0,0,0,995.5,1009.1
71,2023-05-22T01:10:00,2.4,西,3.5,西南西,18,90.4,0,0,0,0,0,0,995.4,1009
72,2023-05-22T01:11:00,2.4,西,3.5,西南西,17.9,90.5,0,0,0,0,0,0,995.4,1009
73,2023-05-22T01:12:00,2.4,西,3.5,西南西,17.9,90.8,0,0,0,0,0,0,995.4,1009
74,2023-05-22T01:13:00,2.4,西,3.5,西南西,17.9,91.1,0,0,0,0,0,0,995.4,1009
75,2023-05-22T01:14:00,2.4,西,3.5,西南西,17.9,91.5,0,0,0,0,0,0,995.4,1009
76,2023-05-22T01:15:00,2.3,西,3.5,西南西,17.8,91.7,0,0,0,0,0,0,995.4,1009
77,2023-05-22T01:16:00,2.4,西,3.5,西南西,17.8,92.1,0,0,0,0,0,0,995.3,1008.9
78,2023-05-22T01:17:00,2.4,西,3.5,西南西,17.8,92.6,0,0,0,0,0,0,995.3,1008.9
79,2023-05-22T01:18:00,2.5,西,3.7,西,17.7,92.7,0,0,0,0,0,0,995.3,1008.9
80,2023-05-22T01:19:00,2.5,西,3.7,西,17.8,93,0,0,0,0,0,0,995.3,1008.9
81,2023-05-22T01:20:00,2.5,西,3.7,西,17.7,93.3,0,0,0,0,0,0,995.3,1008.9
82,2023-05-22T01:21:00,2.6,西,3.7,西,17.6,93.5,0,0,0,0,0,0,995.3,1008.9
83,2023-05-22T01:22:00,2.6,西,3.7,西,17.6,93.8,0,0,0,0,0,0,995.3,1008.9
84,2023-05-22T01:23:00,2.7,西,3.7,西,17.5,94.1,0,0,0,0,0,0,995.2,1008.8
85,2023-05-22T01:24:00,2.7,西,3.7,西,17.6,94.5,0,0,0,0,0,0,995.2,1008.8
86,2023-05-22T01:25:00,2.8,西,3.7,西,17.6,94.8,0,0,0,0,0,0,995.2,1008.8
87,2023-05-22T01:26:00,2.8,西,3.7,西,17.6,95.1,0,0,0,0,0,0,995.1,1008.7
88,2023-05-22T01:27:00,2.7,西,3.7,西,17.6,95.2,0,0,0,0,0,0,995.1,1008.7
89,2023-05-22T01:28:00,2.7,西,3.6,西,17.6,95.3,0,0,0,0,0,0,995.1,1008.7
90,2023-05-22T01:29:00,2.6,西,3.6,西,17.7,95.3,0,0,0,0,0,0,995.1,1008.7
91,2023-05-22T01:30:00,2.4,西,3.6,西,17.7,95.3,0,0,0,0,0,0,995.1,1008.7
92,2023-05-22T01:31:00,2.4,西,3.6,西,17.8,95.4,0,0,0,0,0,0,995.1,1008.7
93,2023-05-22T01:32:00,2.3,西,3.6,西,17.8,95.3,0,0,0,0,0,0,995.1,1008.7
94,2023-05-22T01:33:00,2.1,西,3.5,西,18,95.4,0,0,0,0,0,0,995.1,1008.7
95,2023-05-22T01:34:00,2,西,3.1,西,18,95.4,0,0,0,0,0,0,995.1,1008.7
96,2023-05-22T01:35:00,1.9,西,3.1,西,17.8,94.8,0,0,0,0,0,0,995.1,1008.7
97,2023-05-22T01:36:00,1.8,西,3.1,西,17.9,94.5,0,0,0,0,0,0,995.1,1008.7
98,2023-05-22T01:37:00,1.8,西,3,西,17.8,94.1,0,0,0,0,0,0,995,1008.6
99,2023-05-22T01:38:00,1.7,西,2.6,西,17.8,94,0,0,0,0,0,0,995.1,1008.7
100,2023-05-22T01:39:00,1.7,西,2.5,西,17.8,94.3,0,0,0,0,0,0,995.1,1008.7
101,2023-05-22T01:40:00,1.7,西,2.5,西,17.9,94.4,0,0,0,0,0,0,995,1008.6
102,2023-05-22T01:41:00,1.7,西,2.5,西,17.8,94.3,0,0,0,0,0,0,995,1008.6
103,2023-05-22T01:42:00,1.7,西,2.5,西,18,94.3,0,0,0,0,0,0,995.1,1008.7
104,2023-05-22T01:43:00,1.7,西,2.5,西,17.9,94.2,0,0,0,0,0,0,995.1,1008.7
105,2023-05-22T01:44:00,1.7,西,2.5,西,17.8,93.8,0,0,0,0,0,0,995.1,1008.7
106,2023-05-22T01:45:00,1.7,西北西,2.5,西,17.9,94,0,0,0,0,0,0,995.1,1008.7
107,2023-05-22T01:46:00,1.7,西北西,2.5,西,17.9,94,0,0,0,0,0,0,995.1,1008.7
108,2023-05-22T01:47:00,1.6,西北西,2.4,西,17.9,94.2,0,0,0,0,0,0,995.1,1008.7
109,2023-05-22T01:48:00,1.6,西北西,2.4,西,17.9,93.7,0,0,0,0,0,0,995,1008.6
110,2023-05-22T01:49:00,1.7,西北西,2.4,西,17.9,93.6,0,0,0,0,0,0,995,1008.6
111,2023-05-22T01:50:00,1.7,西北西,2.4,北西,17.9,93.5,0,0,0,0,0,0,995,1008.6
112,2023-05-22T01:51:00,1.6,北西,2.4,北西,17.9,93.1,0,0,0,0,0,0,995,1008.6
113,2023-05-22T01:52:00,1.6,北西,2.4,北西,18,92.8,0,0,0,0,0,0,995,1008.6
114,2023-05-22T01:53:00,1.5,北西,2.4,北西,18.1,92.7,0,0,0,0,0,0,995,1008.6
115,2023-05-22T01:54:00,1.5,北西,2.4,北西,18,92,0,0,0,0,0,0,995,1008.6
116,2023-05-22T01:55:00,1.4,北西,2.4,北西,18,91.5,0,0,0,0,0,0,995,1008.6
117,2023-05-22T01:56:00,1.4,北西,2.4,北西,18.2,91.7,0,0,0,0,0,0,995,1008.6
118,2023-05-22T01:57:00,1.4,北西,2.4,北西,18.2,91.5,0,0,0,0,0,0,995,1008.6
119,2023-05-22T01:58:00,1.3,北西,2.4,北西,18.1,90.9,0,0,0,0,0,0,995,1008.6
120,2023-05-22T01:59:00,1.2,北西,2.4,北西,18.1,90.6,0,0,0,0,0,0,995,1008.6
121,2023-05-22T02:00:00,1.1,北西,2,北西,18.1,90.6,0,0,0,0,0,0,995,1008.6
122,2023-05-22T02:01:00,1,北西,1.6,西,18.2,90.6,0,0,0,0,0,0,995,1008.6
123,2023-05-22T02:02:00,0.9,北西,1.6,西,18.1,90.4,0,0,0,0,0,0,995,1008.6
124,2023-05-22T02:03:00,0.9,北西,1.6,西,18,90.1,0,0,0,0,0,0,995,1008.6
125,2023-05-22T02:04:00,0.8,北西,1.6,西,18,89.9,0,0,0,0,0,0,995,1008.6
126,2023-05-22T02:05:00,0.8,北西,1.6,西,18,90,0,0,0,0,0,0,995,1008.6
127,2023-05-22T02:06:00,0.8,北西,1.6,西,18.1,90.2,0,0,0,0,0,0,995,1008.6
128,2023-05-22T02:07:00,0.8,西北西,1.5,北西,18.1,90.1,0,0,0,0,0,0,995,1008.6
129,2023-05-22T02:08:00,0.7,西北西,1.3,北西,18,89.8,0,0,0,0,0,0,994.9,1008.5
130,2023-05-22T02:09:00,0.7,西北西,1.3,北西,18,89.9,0,0,0,0,0,0,994.9,1008.5
131,2023-05-22T02:10:00,0.7,西北西,1.1,西北西,17.9,89.8,0,0,0,0,0,0,995,1008.6
132,2023-05-22T02:11:00,0.7,西北西,1,西,17.8,89.5,0,0,0,0,0,0,995,1008.6
133,2023-05-22T02:12:00,0.7,西,1,西,17.9,89.8,0,0,0,0,0,0,995,1008.6
134,2023-05-22T02:13:00,0.7,西,1,西,18.1,90.2,0,0,0,0,0,0,995,1008.6
135,2023-05-22T02:14:00,0.7,西,1,西,18.2,90.4,0,0,0,0,0,0,995,1008.6
136,2023-05-22T02:15:00,0.7,西,1,西,18.1,90.1,0,0,0,0,0,0,995,1008.6
137,2023-05-22T02:16:00,0.7,西,1,西,18.1,89.6,0,0,0,0,0,0,994.9,1008.5
138,2023-05-22T02:17:00,0.6,西,1,西,18.2,89.7,0,0,0,0,0,0,994.9,1008.5
139,2023-05-22T02:18:00,0.7,西,1.2,西,18.1,89.3,0,0,0,0,0,0,994.9,1008.5
140,2023-05-22T02:19:00,0.7,西,1.2,西,18.3,89.2,0,0,0,0,0,0,994.9,1008.5
141,2023-05-22T02:20:00,0.7,西,1.3,西北西,18.3,89.2,0,0,0,0,0,0,994.9,1008.5
142,2023-05-22T02:21:00,0.8,西,1.6,西,18.3,89,0,0,0,0,0,0,994.9,1008.5
143,2023-05-22T02:22:00,0.9,西,1.6,西,18.3,88.8,0,0,0,0,0,0,994.9,1008.5
144,2023-05-22T02:23:00,0.9,西,1.6,西,18.3,88.8,0,0,0,0,0,0,994.9,1008.5
145,2023-05-22T02:24:00,1,西,1.6,西,18.1,88.8,0,0,0,0,0,0,994.9,1008.5
146,2023-05-22T02:25:00,1,西,1.6,西,18.2,89.3,0,0,0,0,0,0,994.9,1008.5
147,2023-05-22T02:26:00,1.1,西,1.6,西,18,89.5,0,0,0,0,0,0,994.9,1008.5
148,2023-05-22T02:27:00,1.1,西,1.7,西,18.1,89.9,0,0,0,0,0,0,994.9,1008.5
149,2023-05-22T02:28:00,1.2,西,1.8,西,18,90.5,0,0,0,0,0,0,994.9,1008.5
150,2023-05-22T02:29:00,1.3,西,2.1,西,17.9,90.4,0,0,0,0,0,0,994.9,1008.5
151,2023-05-22T02:30:00,1.3,西,2.2,西,17.8,90.6,0,0,0,0,0,0,994.9,1008.5
152,2023-05-22T02:31:00,1.4,西,2.3,西,17.7,91,0,0,0,0,0,0,994.9,1008.5
153,2023-05-22T02:32:00,1.4,西,2.3,西,17.7,91.5,0,0,0,0,0,0,994.9,1008.5
154,2023-05-22T02:33:00,1.4,西,2.3,西,17.9,92.2,0,0,0,0,0,0,994.9,1008.5
155,2023-05-22T02:34:00,1.5,西,2.3,西,17.9,92.7,0,0,0,0,0,0,995,1008.6
156,2023-05-22T02:35:00,1.5,西,2.3,西,18,92.8,0,0,0,0,0,0,995,1008.6
157,2023-05-22T02:36:00,1.5,西北西,2.3,西,18,92.7,0,0,0,0,0,0,995,1008.6
158,2023-05-22T02:37:00,1.5,西北西,2.3,西,18.1,92.6,0,0,0,0,0,0,995,1008.6
159,2023-05-22T02:38:00,1.5,西北西,2.3,西,18.2,92.6,0,0,0,0,0,0,995,1008.6
160,2023-05-22T02:39:00,1.5,北西,3,北東,18.4,92.5,0,0,0,0,0,0,995,1008.6
161,2023-05-22T02:40:00,1.6,北北西,3,北東,18.5,92.1,0,0,0,0,0,0,995,1008.6
162,2023-05-22T02:41:00,1.6,北北西,3,北東,18.6,91.5,0,0,0,0,0,0,995,1008.6
163,2023-05-22T02:42:00,1.6,北,3,北東,18.5,90.6,0,0,0,0,0,0,994.9,1008.5
164,2023-05-22T02:43:00,1.7,北,3,北東,18.6,89.6,0,0,0,0,0,0,994.9,1008.5
165,2023-05-22T02:44:00,1.7,北北東,3,北東,18.5,89,0,0,0,0,0,0,994.9,1008.5
166,2023-05-22T02:45:00,1.7,北北東,3,北東,18.5,88.5,0,0,0,0,0,0,994.9,1008.5
167,2023-05-22T02:46:00,1.7,北東,3,北東,18.3,87.6,0,0,0,0,0,0,995,1008.6
168,2023-05-22T02:47:00,1.8,北東,3,北東,18.2,87.3,0,0,0,0,0,0,994.9,1008.5
169,2023-05-22T02:48:00,1.9,北東,3,北東,18.2,87.8,0,0,0,0,0,0,994.9,1008.5
170,2023-05-22T02:49:00,1.8,北東,2.8,北東,18.3,88.2,0,0,0,0,0,0,994.9,1008.5
171,2023-05-22T02:50:00,1.8,北東,2.9,東北東,18.2,88.4,0,0,0,0,0,0,994.9,1008.5
172,2023-05-22T02:51:00,1.8,北東,2.9,東北東,18.5,88.7,0,0,0,0,0,0,994.9,1008.5
173,2023-05-22T02:52:00,1.8,東北東,2.9,東北東,18.5,88.8,0,0,0,0,0,0,994.8,1008.4
174,2023-05-22T02:53:00,1.8,東北東,2.9,東北東,18.4,88.3,0,0,0,0,0,0,994.8,1008.4
175,2023-05-22T02:54:00,1.7,東北東,2.9,東北東,18.2,88,0,0,0,0,0,0,994.8,1008.4
176,2023-05-22T02:55:00,1.6,東北東,2.9,東北東,18.2,88,0,0,0,0,0,0,994.8,1008.4
177,2023-05-22T02:56:00,1.6,東北東,2.9,東北東,18.1,88.3,0,0,0,0,0,0,994.8,1008.4
178,2023-05-22T02:57:00,1.7,東北東,2.9,東北東,18.2,88.8,0,0,0,0,0,0,994.8,1008.4
179,2023-05-22T02:58:00,1.6,東北東,2.9,東北東,18.5,89.6,0,0,0,0,0,0,994.8,1008.4
180,2023-05-22T02:59:00,1.6,東北東,2.9,東北東,18.4,89.2,0,0,0,0,0,0,994.8,1008.4
181,2023-05-22T03:00:00,1.4,東北東,2.8,東,18.3,88.8,0,0,0,0,0,0,994.8,1008.4
182,2023-05-22T03:01:00,1.3,東北東,2.8,東,18.1,88.5,0,0,0,0,0,0,994.8,1008.4
183,2023-05-22T03:02:00,1.2,東北東,2.2,東北東,18.4,88.7,0,0,0,0,0,0,994.8,1008.4
184,2023-05-22T03:03:00,1.1,東北東,2.1,東北東,18.5,89.2,0,0,0,0,0,0,994.8,1008.4
185,2023-05-22T03:04:00,1.1,東北東,2.1,東北東,18.6,89.2,0,0,0,0,0,0,994.8,1008.4
186,2023-05-22T03:05:00,1,東北東,2.1,東北東,18.6,88.7,0,0,0,0,0,0,994.8,1008.4
187,2023-05-22T03:06:00,1,北東,2.1,東北東,18.5,88.5,0,0,0,0,0,0,994.8,1008.4
188,2023-05-22T03:07:00,0.9,北東,2.1,東北東,18.4,88.2,0,0,0,0,0,0,994.8,1008.4
189,2023-05-22T03:08:00,0.8,北東,1.6,東北東,18.4,88.1,0,0,0,0,0,0,994.8,1008.4
190,2023-05-22T03:09:00,0.7,北東,1.4,北北東,18.4,88.3,0,0,0,0,0,0,994.8,1008.4
191,2023-05-22T03:10:00,0.6,北東,1.4,北北東,18.3,88,0,0,0,0,0,0,994.8,1008.4
192,2023-05-22T03:11:00,0.6,北東,1.4,北北東,18.4,88.5,0,0,0,0,0,0,994.8,1008.4
193,2023-05-22T03:12:00,0.6,北東,1.4,北北東,18.4,88.7,0,0,0,0,0,0,994.8,1008.4
194,2023-05-22T03:13:00,0.5,北東,1.4,北北東,18.3,88.7,0,0,0,0,0,0,994.8,1008.4
195,2023-05-22T03:14:00,0.5,北北東,1.3,東北東,18.4,88.8,0,0,0,0,0,0,994.8,1008.4
196,2023-05-22T03:15:00,0.5,北北東,1.3,東北東,18.5,89.1,0,0,0,0,0,0,994.8,1008.4
197,2023-05-22T03:16:00,0.4,北北東,1.3,東北東,18.6,89.3,0,0,0,0,0,0,994.8,1008.4
198,2023-05-22T03:17:00,0.5,北北東,1.2,北東,18.7,89.3,0,0,0,0,0,0,994.8,1008.4
199,2023-05-22T03:18:00,0.5,北北東,1.3,北東,18.8,89.1,0,0,0,0,0,0,994.8,1008.4
200,2023-05-22T03:19:00,0.5,北北東,1.3,北東,18.9,89.1,0,0,0,0,0,0,994.8,1008.4
201,2023-05-22T03:20:00,0.5,北北東,1.3,北東,18.7,88.3,0,0,0,0,0,0,994.7,1008.3
202,2023-05-22T03:21:00,0.5,北北東,1.3,北東,18.6,87.9,0,0,0,0,0,0,994.7,1008.3
203,2023-05-22T03:22:00,0.5,北北東,1.3,北東,18.6,88,0,0,0,0,0,0,994.7,1008.3
204,2023-05-22T03:23:00,0.5,北北東,1.3,北東,18.5,88.2,0,0,0,0,0,0,994.7,1008.3
205,2023-05-22T03:24:00,0.4,北北東,1.3,北東,18.7,88.4,0,0,0,0,0,0,994.7,1008.3
206,2023-05-22T03:25:00,0.5,北北東,1.5,西北西,18.8,88.6,0,0,0,0,0,0,994.7,1008.3
207,2023-05-22T03:26:00,0.6,北,1.8,北西,18.8,88.6,0,0,0,0,0,0,994.7,1008.3
208,2023-05-22T03:27:00,0.6,北,2.2,北西,18.7,88,0,0,0,0,0,0,994.7,1008.3
209,2023-05-22T03:28:00,0.7,北北西,2.2,北西,18.6,87.9,0,0,0,0,0,0,994.7,1008.3
210,2023-05-22T03:29:00,0.8,北北西,2.2,北西,18.6,88,0,0,0,0,0,0,994.8,1008.4
211,2023-05-22T03:30:00,1,北西,2.2,北西,18.6,88.2,0,0,0,0,0,0,994.8,1008.4
212,2023-05-22T03:31:00,1.1,北西,2.2,北西,18.6,88.3,0,0,0,0,0,0,994.8,1008.4
213,2023-05-22T03:32:00,1.2,北西,2.2,北西,18.5,88.4,0,0,0,0,0,0,994.8,1008.4
214,2023-05-22T03:33:00,1.3,北西,2.2,北西,18.6,88.5,0,0,0,0,0,0,994.8,1008.4
215,2023-05-22T03:34:00,1.3,西北西,2.2,北西,18.4,88.5,0,0,0,0,0,0,994.7,1008.3
216,2023-05-22T03:35:00,1.3,西北西,2.2,北西,18,87.7,0,0,0,0,0,0,994.8,1008.4
217,2023-05-22T03:36:00,1.2,西北西,2.2,北西,18.2,88.4,0,0,0,0,0,0,994.8,1008.4
218,2023-05-22T03:37:00,1.1,西北西,1.9,西北西,18.4,89.6,0,0,0,0,0,0,994.8,1008.4
219,2023-05-22T03:38:00,0.9,西,1.9,西北西,18.3,89.6,0,0,0,0,0,0,994.8,1008.4
220,2023-05-22T03:39:00,0.9,西,1.9,西北西,18.2,89.4,0,0,0,0,0,0,994.8,1008.4
221,2023-05-22T03:40:00,0.8,西,1.9,西北西,18.3,89.5,0,0,0,0,0,0,994.8,1008.4
222,2023-05-22T03:41:00,0.7,西,1.5,西北西,18.4,90.1,0,0,0,0,0,0,994.8,1008.4
223,2023-05-22T03:42:00,0.6,西,1.3,西北西,18.1,89.8,0,0,0,0,0,0,994.8,1008.4
224,2023-05-22T03:43:00,0.6,西,1.2,西北西,18.3,89.8,0,0,0,0,0,0,994.8,1008.4
225,2023-05-22T03:44:00,0.6,西,1.2,西北西,18.3,90.2,0,0,0,0,0,0,994.7,1008.3
226,2023-05-22T03:45:00,0.6,西,1.2,西北西,18.3,90.3,0,0,0,0,0,0,994.7,1008.3
227,2023-05-22T03:46:00,0.6,西,1.2,西北西,18.4,90.6,0,0,0,0,0,0,994.8,1008.4
228,2023-05-22T03:47:00,0.6,西北西,1.2,西北西,18.4,90.5,0,0,0,0,0,0,994.8,1008.4
229,2023-05-22T03:48:00,0.7,西北西,1.2,西北西,18.3,90.1,0,0,0,0,0,0,994.8,1008.4
230,2023-05-22T03:49:00,0.7,西北西,1.2,西北西,18.2,89.9,0,0,0,0,0,0,994.8,1008.4
231,2023-05-22T03:50:00,0.7,西北西,1.2,西北西,18.1,89.7,0,0,0,0,0,0,994.8,1008.4
232,2023-05-22T03:51:00,0.6,西北西,1,西北西,18.3,90.1,0,0,0,0,0,0,994.8,1008.4
233,2023-05-22T03:52:00,0.6,西北西,1,西北西,18.3,91,0,0,0,0,0,0,994.8,1008.4
234,2023-05-22T03:53:00,0.6,西北西,1,西北西,18.5,90.8,0,0,0,0,0,0,994.8,1008.4
235,2023-05-22T03:54:00,0.5,西,1,西北西,18.3,90.5,0,0,0,0,0,0,994.7,1008.3
236,2023-05-22T03:55:00,0.5,西,1,西北西,18.2,89.9,0,0,0,0,0,0,994.7,1008.3
237,2023-05-22T03:56:00,0.4,西,1,南西,18.1,89.8,0,0,0,0,0,0,994.7,1008.3
238,2023-05-22T03:57:00,0.4,西南西,1,南西,18.3,90.3,0,0,0,0,0,0,994.7,1008.3
239,2023-05-22T03:58:00,0.3,西南西,1,南西,18.4,90.8,0,0,0,0,0,0,994.6,1008.2
240,2023-05-22T03:59:00,0.3,西南西,1,南西,18.5,90.7,0,0,0,0,0,0,994.6,1008.2
241,2023-05-22T04:00:00,0.2,静穏,1,南西,18.4,90.4,0,0,0,0,0,0,994.6,1008.2
242,2023-05-22T04:01:00,0.2,静穏,1,南西,18.2,89.7,0,0,0,0,0,0,994.6,1008.2
243,2023-05-22T04:02:00,0.2,静穏,0.8,西,18.4,89.8,0,0,0,0,0,0,994.6,1008.2
244,2023-05-22T04:03:00,0.1,静穏,0.8,北西,18.5,90.1,0,0,0,0,0,0,994.6,1008.2
245,2023-05-22T04:04:00,0.1,静穏,0.8,北西,18.5,90,0,0,0,0,0,0,994.5,1008.1
246,2023-05-22T04:05:00,0.2,静穏,0.8,北西,18.6,89.8,0,0,0,0,0,0,994.5,1008.1
247,2023-05-22T04:06:00,0.2,静穏,0.8,北西,18.6,89.6,0,0,0,0,0,0,994.5,1008.1
248,2023-05-22T04:07:00,0.1,静穏,0.8,北西,18.6,89.2,0,0,0,0,0,0,994.5,1008.1
249,2023-05-22T04:08:00,0.2,静穏,0.8,北西,18.5,89,0,0,0,0,0,0,994.5,1008.1
250,2023-05-22T04:09:00,0.2,静穏,0.8,北西,18.5,88.9,0,0,0,0,0,0,994.5,1008.1
251,2023-05-22T04:10:00,0.2,静穏,0.8,北西,18.5,89,0,0,0,0,0,0,994.5,1008.1
252,2023-05-22T04:11:00,0.2,静穏,0.8,北西,18.5,89.2,0,0,0,0,0,0,994.5,1008.1
253,2023-05-22T04:12:00,0.3,北西,0.8,北西,18.5,89.2,0,0,0,0,0,0,994.5,1008.1
254,2023-05-22T04:13:00,0.3,西北西,0.8,西北西,18.5,89.2,0,0,0,0,0,0,994.5,1008.1
255,2023-05-22T04:14:00,0.3,西北西,0.8,西北西,18.4,89.2,0,0,0,0,0,0,994.6,1008.2
256,2023-05-22T04:15:00,0.3,西北西,0.8,西北西,18.4,89.4,0,0,0,0,0,0,994.6,1008.2
257,2023-05-22T04:16:00,0.3,西北西,0.8,西北西,18.4,89.6,0,0,0,0,0,0,994.6,1008.2
258,2023-05-22T04:17:00,0.4,西北西,0.8,西北西,18.4,89.7,0,0,0,0,0,0,994.5,1008.1
259,2023-05-22T04:18:00,0.4,西北西,0.8,西北西,18.5,89.8,0,0,0,0,0,0,994.5,1008.1
260,2023-05-22T04:19:00,0.4,西北西,0.8,西北西,18.5,90,0,0,0,0,0,0,994.5,1008.1
261,2023-05-22T04:20:00,0.4,西北西,0.8,西北西,18.5,89.9,0,0,0,0,0,0,994.5,1008.1
262,2023-05-22T04:21:00,0.4,西北西,0.9,西,18.5,89.8,0,0,0,0,0,0,994.5,1008.1
263,2023-05-22T04:22:00,0.4,西北西,1.1,西,18.4,89.6,0,0,0,0,0,0,994.5,1008.1
264,2023-05-22T04:23:00,0.5,西北西,1.6,西,18.4,89.7,0,0,0,0,0,0,994.5,1008.1
265,2023-05-22T04:24:00,0.6,西北西,1.6,西,18.3,89.7,0,0,0,0,0,0,994.5,1008.1
266,2023-05-22T04:25:00,0.7,西北西,1.6,西,18.2,89.8,0,0,0,0,0,0,994.5,1008.1
267,2023-05-22T04:26:00,0.7,西,1.6,西,17.9,89.4,0,0,0,0,0,0,994.5,1008.1
268,2023-05-22T04:27:00,0.8,西,1.6,西,17.9,89.8,0,0,0,0,0,0,994.4,1008
269,2023-05-22T04:28:00,0.9,西,1.6,西,18,90.7,0,0,0,0,0,0,994.4,1008
270,2023-05-22T04:29:00,0.9,西,1.6,西,18.3,91.8,0,0,0,0,0,0,994.4,1008
271,2023-05-22T04:30:00,0.9,西,1.6,西,18.2,91.8,0,0,0,0,0,0,994.4,1008
272,2023-05-22T04:31:00,1,西,1.6,西,18.2,91.5,0,0,0,0,0,0,994.5,1008.1
273,2023-05-22T04:32:00,1,西,1.6,西,18.5,91.7,0,0,0,0,0,0,994.4,1008
274,2023-05-22T04:33:00,0.9,西,1.4,西,18.5,91.6,0,0,0,0,0,0,994.4,1008
275,2023-05-22T04:34:00,0.9,西,1.4,西,18.5,91,0,0,0,0,0,0,994.4,1008
276,2023-05-22T04:35:00,0.8,西北西,1.3,西,18.5,90.5,0,0,0,0,0,0,994.4,1008
277,2023-05-22T04:36:00,0.8,西北西,1.2,西,18.4,89.8,0,0,0,0,0,0,994.4,1008
278,2023-05-22T04:37:00,0.7,西北西,1,西北西,18.2,89.4,0,0,0,0,0,0,994.3,1007.9
279,2023-05-22T04:38:00,0.7,西北西,1,西北西,18.3,89.5,0,0,0,0,0,0,994.4,1008
280,2023-05-22T04:39:00,0.7,西北西,1,西,18.3,89.8,0,0,0,0,0,0,994.4,1008
281,2023-05-22T04:40:00,0.7,西北西,1.3,西,18.2,89.9,0,0,0,0,0,0,994.3,1007.9
282,2023-05-22T04:41:00,0.7,西北西,1.5,西,18.1,90.1,0,0,0,0,0,0,994.4,1008
283,2023-05-22T04:42:00,0.8,西,1.6,西,18,90,0,0,0,0,0,0,994.3,1007.9
284,2023-05-22T04:43:00,0.9,西,1.8,西,17.9,90.3,0,0,0,0,0,0,994.3,1007.9
285,2023-05-22T04:44:00,0.9,西,1.8,西,17.9,91,0,0,0,0,0,0,994.3,1007.9
286,2023-05-22T04:45:00,1,西,1.8,西,17.9,91.6,0,0,0,0,0,0,994.3,1007.9
287,2023-05-22T04:46:00,1.1,西,1.8,西,17.9,92.1,0,0,0,0,0,0,994.3,1007.9
288,2023-05-22T04:47:00,1.2,西,1.8,西,18.1,92.8,0,0,0,0,0,0,994.3,1007.9
289,2023-05-22T04:48:00,1.3,西,1.8,西,18,92.8,0,0,0,0,0,0,994.3,1007.9
290,2023-05-22T04:49:00,1.3,西,1.8,西,18.1,93.1,0,0,0,0,0,0,994.3,1007.9
291,2023-05-22T04:50:00,1.4,西,1.8,西,18.2,93.3,0,0,0,0,0,0,994.3,1007.9
292,2023-05-22T04:51:00,1.4,西,1.8,西,18.1,93,0,0,0,0,0,0,994.4,1008
293,2023-05-22T04:52:00,1.4,西,1.8,西,18.1,92.7,0,0,0,0,0,0,994.4,1008
294,2023-05-22T04:53:00,1.3,西,1.7,西,18,92.6,0,0,0,0,0,0,994.4,1008
295,2023-05-22T04:54:00,1.2,西,1.7,西,17.9,92.2,0,0,0,0,0,0,994.4,1008
296,2023-05-22T04:55:00,1.2,西,1.7,西,17.8,92.3,0,0,0,0,0,0,994.4,1008
297,2023-05-22T04:56:00,1.1,西,1.7,西,17.9,92.6,0,0,0,0,0,0,994.4,1008
298,2023-05-22T04:57:00,1.1,西,1.6,西,17.8,92.7,0,0,0,0,0,0,994.5,1008.1
299,2023-05-22T04:58:00,1.1,西,1.4,西,17.9,93.2,0,0,0,0,0,0,994.5,1008.1
300,2023-05-22T04:59:00,1,西,1.4,西,18,93.4,0,0,0,0,0,0,994.5,1008.1
301,2023-05-22T05:00:00,1,西,1.5,西,17.9,93.3,0,0,0,0,0,0,994.5,1008.1
302,2023-05-22T05:01:00,1,西,1.5,西,17.9,93.1,0,0,0,0,0,0,994.5,1008.1
303,2023-05-22T05:02:00,1,西,1.5,西,17.8,92.9,0,0,0,0,0,0,994.5,1008.1
304,2023-05-22T05:03:00,0.9,西,1.5,西,17.8,92.9,0,0,0,0,0,0,994.5,1008.1
305,2023-05-22T05:04:00,0.9,西,1.5,西,17.8,92.9,0,0,0,0,0,0,994.5,1008.1
306,2023-05-22T05:05:00,0.9,西,1.5,西,17.8,93,0,0,0,0,0,0,994.5,1008.1
307,2023-05-22T05:06:00,0.9,西,1.5,西,17.8,93,0,0,0,0,0,0,994.5,1008.1
308,2023-05-22T05:07:00,0.8,西,1.5,西,17.7,92.9,0,0,0,0,0,0,994.5,1008.1
309,2023-05-22T05:08:00,0.7,西,1.5,西,17.7,93,0,0,0,0,0,0,994.5,1008.1
310,2023-05-22T05:09:00,0.6,西,1.5,西,17.6,93,0,0,0,0,0.01,0,994.5,1008.1
311,2023-05-22T05:10:00,0.5,西北西,1.4,西,17.7,93.2,0,0,0,0,0.01,0,994.5,1008.1
312,2023-05-22T05:11:00,0.5,西北西,1.3,西,17.8,93.6,0,0,0,0,0.01,0,994.6,1008.2
313,2023-05-22T05:12:00,0.4,北西,1.3,西,18,94,0,0,0,0,0.01,0,994.6,1008.2
314,2023-05-22T05:13:00,0.4,北西,1.3,西,18,93.9,0,0,0,0,0.01,0,994.6,1008.2
315,2023-05-22T05:14:00,0.4,北北西,1.3,西,18,93.5,0,0,0,0,0.01,0,994.6,1008.2
316,2023-05-22T05:15:00,0.4,北北西,1.3,西,18,93.2,0,0,0,0,0.01,0,994.7,1008.3
317,2023-05-22T05:16:00,0.4,北北西,1.3,西,18.1,93.1,0,0,0,0,0.01,0,994.7,1008.3
318,2023-05-22T05:17:00,0.4,北,1.2,西北西,18.1,93.1,0,0,0,0,0.02,0,994.7,1008.3
319,2023-05-22T05:18:00,0.5,北,1.2,西北西,18.2,92.7,0,0,0,0,0.02,0,994.7,1008.3
320,2023-05-22T05:19:00,0.6,北北西,1.2,西北西,18.1,92.5,0,0,0,0,0.02,0,994.6,1008.2
321,2023-05-22T05:20:00,0.7,北北西,1.2,西北西,18.1,92.3,0,0,0,0,0.02,0,994.7,1008.3
322,2023-05-22T05:21:00,0.7,北西,1.2,西北西,18.1,92.1,0,0,0,0,0.02,0,994.6,1008.2
323,2023-05-22T05:22:00,0.9,西北西,1.3,西,18,91.9,0,0,0,0,0.03,0,994.7,1008.3
324,2023-05-22T05:23:00,0.9,西北西,1.3,西,17.9,91.7,0,0,0,0,0.03,0,994.7,1008.3
325,2023-05-22T05:24:00,1,西北西,1.4,西,17.8,91.6,0,0,0,0,0.03,0,994.7,1008.3
326,2023-05-22T05:25:00,1.1,西,1.4,西,17.8,91.4,0,0,0,0,0.03,0,994.7,1008.3
327,2023-05-22T05:26:00,1.1,西,1.4,西,17.8,91.7,0,0,0,0,0.04,0,994.7,1008.3
328,2023-05-22T05:27:00,1.1,西,1.4,西,17.7,91.9,0,0,0,0,0.04,0,994.7,1008.3
329,2023-05-22T05:28:00,1.1,西,1.4,西,17.8,92.1,0,0,0,0,0.04,0,994.7,1008.3
330,2023-05-22T05:29:00,1,西,1.4,西,17.9,92.5,0,0,0,0,0.05,0,994.8,1008.4
331,2023-05-22T05:30:00,1,西北西,1.4,西,17.9,92.5,0,0,0,0,0.05,0,994.8,1008.4
332,2023-05-22T05:31:00,0.9,西北西,1.4,西,17.8,92.5,0,0,0,0,0.05,0,994.8,1008.4
333,2023-05-22T05:32:00,0.8,西北西,1.4,西,17.9,92.4,0,0,0,0,0.06,0,994.7,1008.3